#datint,netname,site,siteID,timestamp,IntT,BattV,AirT2,AirT,AirT_Avg,AirT_Max,AirT_Min,RH_Avg,RH_Max,RH_Min,EA_Avg,Td_Avg,Td_Max,Td_Min,WindS_Smp,WindS_Avg,WindD_Avg,WindD_SD,WindS_Max,ETo,ETr,SoilT4,SoilT8,SoilVWC8,SolarW_Avg,wetstate_Avg,wetT_Avg,Precip_accum,Precip_WPG,Precip_TB
15min,AgWx,beryljct,423,09JUL2019:00:00:00,64.9,12.99,67.4,67.4,68.2,69.1,67.4,24,26,22,0.588,29.9,31.2,28.8,5.853,7.3,201,6.8,12.0,0.00075,0.00102,65.7,66.9,10,0,.,.,16.03,0.00,0.00
15min,AgWx,beryljct,423,09JUL2019:00:15:00,64.3,12.98,63.7,60.6,60.5,67.4,57.0,38,46,26,0.644,34.3,36.3,31.1,6.971,4.5,175,19,7.0,0.00028,0.00042,65.5,66.8,10,0,.,.,16.03,0.00,0.00
15min,AgWx,beryljct,423,09JUL2019:00:30:00,63.8,12.96,68.3,67.5,65.5,67.5,60.8,27,35,24,0.559,30.5,33.0,29.8,10.85,8.7,208,6.8,12.1,0.00078,0.00103,65.3,66.8,10,0,.,.,16.04,0.00,0.00
15min,AgWx,beryljct,423,09JUL2019:00:45:00,64.7,12.96,68.4,68.1,67.8,68.3,67.4,24,25,24,0.567,30.2,30.7,29.6,10.43,9.5,207,6.4,14.6,0.00092,0.00120,65.1,66.8,10,0,.,.,16.03,0.00,0.00
15min,AgWx,beryljct,423,09JUL2019:01:00:00,65.5,12.96,67.9,68.3,68.0,68.3,67.7,24,25,24,0.566,30.1,30.7,29.6,9.67,9.9,205,7.6,14.2,0.00095,0.00123,64.8,66.7,10,0,.,.,16.03,0.00,0.00
15min,AgWx,beryljct,423,09JUL2019:01:15:00,66.0,12.95,67.8,67.9,68.0,68.3,67.5,24,25,24,0.553,30.0,30.5,29.3,9.89,9.5,207,8.5,13.0,0.00092,0.00121,64.6,66.6,10,0,.,.,16.04,0.00,0.00
15min,AgWx,beryljct,423,09JUL2019:01:30:00,66.1,12.95,66.0,66.8,67.2,67.9,66.8,25,26,24,0.572,30.2,30.9,29.5,6.84,8.0,203,5.9,11.0,0.00078,0.00105,64.4,66.6,9,0,.,.,16.03,0.00,0.00
15min,AgWx,beryljct,423,09JUL2019:01:45:00,65.5,12.93,61.8,62.2,64.6,67.5,62.0,29,33,24,0.606,31.5,33.6,29.3,4.209,5.7,178,16,9.5,0.00050,0.00072,64.2,66.5,9,0,.,.,16.03,0.00,0.00
15min,AgWx,beryljct,423,09JUL2019:02:00:00,64.6,12.92,68.1,66.7,65.2,67.5,62.0,27,32,24,0.557,30.2,31.8,29.0,10.15,7.8,191,11,11.8,0.00071,0.00095,64.0,66.5,9,0,.,.,16.03,0.00,0.00
15min,AgWx,beryljct,423,09JUL2019:02:15:00,64.8,12.91,66.1,63.8,66.9,67.8,63.2,25,32,23,0.593,30.0,33.1,28.8,7.717,8.0,190,14,12.6,0.00078,0.00105,63.9,66.4,9,0,.,.,16.03,0.00,0.00
15min,AgWx,beryljct,423,09JUL2019:02:30:00,64.6,12.91,56.2,57.6,63.8,67.8,57.4,31,47,23,0.702,32.0,37.5,28.5,3.595,6.5,167,35,12.2,0.00056,0.00077,63.7,66.3,10,0,.,.,16.03,0.00,0.00
15min,AgWx,beryljct,423,09JUL2019:02:45:00,62.4,12.91,58.0,59.7,57.4,59.9,54.7,44,55,37,0.655,35.3,38.9,32.7,3.573,4.5,42,52,7.6,0.00021,0.00032,63.5,66.3,9,0,.,.,16.04,0.00,0.00
15min,AgWx,beryljct,423,09JUL2019:03:00:00,60.6,12.91,55.9,55.3,59.3,61.5,55.3,38,55,32,0.809,33.7,39.3,31.3,0,2.9,48,39,4.8,0.00009,0.00017,63.3,66.2,9,0,.,.,16.04,0.00,0.00
15min,AgWx,beryljct,423,09JUL2019:03:15:00,58.8,12.9,58.7,58.0,57.3,59.1,55.3,44,54,37,0.688,35.6,38.9,32.9,0,0.5,265,12,2.0,-0.00030,-0.00045,63.2,66.1,10,0,.,.,16.04,0.00,0.00
15min,AgWx,beryljct,423,09JUL2019:03:30:00,57.4,12.9,54.7,56.9,57.7,59.9,55.6,42,49,34,0.666,34.6,36.8,31.4,2.916,1.9,225,11,4.1,-0.00007,-0.00006,63.0,66.0,10,0,.,.,16.04,0.00,0.00
15min,AgWx,beryljct,423,09JUL2019:03:45:00,56.8,12.89,61.9,60.9,58.6,62.1,56.5,35,43,28,0.520,31.2,35.2,27.4,3.858,3.2,203,24,6.3,0.00013,0.00023,62.8,66.0,9,0,.,.,16.04,0.00,0.00
15min,AgWx,beryljct,423,09JUL2019:04:00:00,56.7,12.89,55.3,55.6,59.1,63.2,55.6,40,49,28,0.710,34.8,38.8,27.7,3.025,3.6,208,59,5.9,0.00015,0.00026,62.6,65.9,10,0,.,.,16.04,0.00,0.00
15min,AgWx,beryljct,423,09JUL2019:04:15:00,56.1,12.89,52.5,51.5,54.5,57.2,50.9,46,58,34,0.697,33.8,36.6,29.3,1.754,2.0,43,21,4.2,-0.00006,-0.00004,62.4,65.8,9,0,.,.,16.04,0.00,0.00
15min,AgWx,beryljct,423,09JUL2019:04:30:00,54.8,12.88,55.0,53.1,52.0,53.1,50.7,46,53,38,0.530,31.9,35.1,28.5,4.56,2.6,332,30,5.2,-0.00000,0.00003,62.1,65.7,9,0,.,.,16.05,0.00,0.00
15min,AgWx,beryljct,423,09JUL2019:04:45:00,53.6,12.88,45.8,48.4,50.9,53.8,48.4,49,61,36,0.704,32.3,35.9,27.7,1.03,1.4,324,2.4,4.7,-0.00013,-0.00016,62.0,65.6,9,0,.,.,16.05,0.00,0.00
15min,AgWx,beryljct,423,09JUL2019:05:00:00,52.5,12.87,53.8,53.1,51.3,54.5,47.3,49,65,37,0.610,32.6,36.6,28.6,1.074,1.0,248,30,3.3,-0.00020,-0.00028,61.8,65.6,9,0,.,.,16.05,0.00,0.00
15min,AgWx,beryljct,423,09JUL2019:05:15:00,52.0,12.87,52.0,53.6,52.8,56.1,50.5,47,58,38,0.676,33.1,37.2,30.9,3.661,3.3,211,12,7.8,0.00007,0.00013,61.6,65.5,10,0,.,.,16.05,0.00,0.00
15min,AgWx,beryljct,423,09JUL2019:05:30:00,51.6,12.87,50.5,49.2,52.1,55.7,48.1,53,69,39,0.767,35.3,38.7,31.0,0.767,1.9,229,4.1,3.9,-0.00009,-0.00010,61.4,65.4,9,0,.,.,16.05,0.00,0.00
15min,AgWx,beryljct,423,09JUL2019:05:45:00,50.8,12.84,48.4,48.4,48.7,49.6,47.7,57,68,49,0.566,34.1,38.0,30.0,0,0.8,282,13,3.7,0.00010,0.00017,61.2,65.3,10,0,.,.,16.05,0.00,0.00
15min,AgWx,beryljct,423,09JUL2019:06:00:00,50.0,12.86,50.5,49.2,48.4,49.5,47.0,52,61,45,0.548,31.3,34.8,28.4,0.482,0.5,258,17,3.9,0.00007,0.00012,61.0,65.2,10,0,.,.,16.05,0.00,0.00
15min,AgWx,beryljct,423,09JUL2019:06:15:00,49.4,12.85,49.9,48.0,49.7,52.3,47.7,52,63,40,0.693,32.5,36.7,28.6,0,0.9,224,7.0,4.9,0.00012,0.00021,60.8,65.1,9,1,.,.,16.05,0.00,0.00
15min,AgWx,beryljct,423,09JUL2019:06:30:00,49.0,12.86,49.1,46.7,48.3,49.8,46.3,53,62,47,0.622,31.9,34.9,29.3,0,1.6,317,18,3.4,0.00023,0.00038,60.6,65.1,9,7,.,.,16.05,0.00,0.00
15min,AgWx,beryljct,423,09JUL2019:06:45:00,48.7,12.87,47.6,49.2,48.2,49.2,47.0,52,59,47,0.648,31.3,34.4,28.9,1.666,0.5,318,0.4,2.9,0.00024,0.00030,60.4,65.0,10,31,.,.,16.05,0.00,0.00
15min,AgWx,beryljct,423,09JUL2019:07:00:00,48.9,12.9,48.7,48.9,48.8,49.8,47.7,63,70,56,0.755,36.6,38.6,34.5,0.658,0.6,318,0.6,1.5,0.00040,0.00047,60.2,64.9,10,61,.,.,16.05,0.00,0.00
15min,AgWx,beryljct,423,09JUL2019:07:15:00,49.7,12.87,49.9,49.6,48.8,49.8,47.8,67,75,56,0.834,38.1,40.2,34.5,0,0.7,233,50,3.1,0.00056,0.00064,60.0,64.8,9,104,.,.,16.05,0.00,0.00
15min,AgWx,beryljct,423,09JUL2019:07:30:00,51.4,12.87,52.6,51.8,51.0,51.9,49.6,63,75,49,0.865,38.9,42.3,33.3,0,0.7,196,0.7,4.4,0.00077,0.00087,59.8,64.7,10,145,.,.,16.05,0.00,0.00
15min,AgWx,beryljct,423,09JUL2019:07:45:00,53.6,12.89,54.6,53.8,53.3,54.5,51.9,55,65,40,0.684,37.4,41.3,30.7,0,0.2,195,0.0,1.1,0.00098,0.00107,59.6,64.6,10,188,.,.,16.05,0.00,0.00
15min,AgWx,beryljct,423,09JUL2019:08:00:00,56.0,12.91,55.7,55.8,55.2,55.8,53.9,53,59,47,0.773,38.5,41.4,34.8,0.417,0.2,197,0.4,1.1,0.00127,0.00137,59.5,64.5,10,237,.,.,16.05,0.00,0.00
15min,AgWx,beryljct,423,09JUL2019:08:15:00,58.4,12.93,57.4,57.6,56.4,57.7,55.5,56,62,49,0.807,40.9,43.0,37.4,0,0.3,195,0.3,1.4,0.00155,0.00168,59.4,64.4,9,284,.,.,16.05,0.00,0.00
15min,AgWx,beryljct,423,09JUL2019:08:30:00,60.8,12.96,58.8,59.0,58.1,59.2,57.3,54,60,49,0.845,41.8,44.6,38.8,0,0.5,202,2.3,1.7,0.00190,0.00207,59.3,64.3,9,336,.,.,16.05,0.00,0.00
15min,AgWx,beryljct,423,09JUL2019:08:45:00,63.2,12.98,60.8,61.5,60.1,61.5,58.8,49,57,45,0.920,41.1,45.2,38.6,0.526,0.7,200,4.3,1.7,0.00226,0.00248,59.3,64.2,9,387,.,.,16.04,0.00,0.00
15min,AgWx,beryljct,423,09JUL2019:09:00:00,65.3,13.1,62.6,62.6,61.6,62.6,61.1,47,50,44,0.902,41.1,42.5,39.9,3.069,1.3,159,26,3.8,0.00266,0.00297,59.3,64.1,10,439,.,.,16.04,0.00,0.00
15min,AgWx,beryljct,423,09JUL2019:09:15:00,67.2,13.25,65.3,65.3,64.0,65.4,62.6,43,49,36,0.801,40.9,43.9,37.5,2.258,2.2,125,0.9,3.7,0.00312,0.00358,59.4,64.0,10,490,.,.,16.04,0.00,0.00
15min,AgWx,beryljct,423,09JUL2019:09:30:00,69.6,13.44,67.8,67.8,66.5,67.8,65.3,40,44,34,0.864,41.4,43.4,38.1,1.929,1.3,123,0.0,2.3,0.00345,0.00385,59.5,63.9,9,539,.,.,16.03,0.00,0.00
15min,AgWx,beryljct,423,09JUL2019:09:45:00,72.0,13.69,69.6,69.9,68.8,69.9,67.8,35,38,32,0.871,39.9,41.7,38.0,2.039,1.8,106,11,2.8,0.00389,0.00441,59.6,63.8,9,587,.,.,16.03,0.00,0.00
15min,AgWx,beryljct,423,09JUL2019:10:00:00,74.1,14.05,71.6,71.7,70.7,71.7,69.7,31,34,27,0.790,38.5,40.7,35.9,3.003,3.3,112,9.5,5.1,0.00445,0.00523,59.9,63.8,9,633,.,.,16.02,0.00,0.00
15min,AgWx,beryljct,423,09JUL2019:10:15:00,75.8,13.99,73.4,73.2,72.6,73.2,71.7,30,34,26,0.860,39.3,43.1,35.5,6.686,4.6,102,9.4,6.7,0.00496,0.00596,60.2,63.7,9,678,.,.,16.02,0.00,0.00
15min,AgWx,beryljct,423,09JUL2019:10:30:00,77.0,14,74.8,74.8,74.2,74.9,73.2,30,35,27,0.810,40.8,45.1,38.1,8.4,7.4,106,12,10.1,0.00559,0.00702,60.5,63.6,9,720,.,.,16.02,0.00,0.00
15min,AgWx,beryljct,423,09JUL2019:10:45:00,78.1,13.99,74.8,76.1,75.5,76.2,74.8,27,36,22,1.109,39.3,47.3,34.5,5.941,7.4,144,39,13.8,0.00598,0.00750,60.9,63.5,9,760,.,.,16.02,0.00,0.00
15min,AgWx,beryljct,423,09JUL2019:11:00:00,79.3,13.96,76.8,76.8,76.6,77.9,75.5,28,38,22,0.772,41.2,48.9,35.2,10.5,6.7,197,20,13.8,0.00617,0.00760,61.3,63.5,9,797,.,.,16.02,0.00,0.00
15min,AgWx,beryljct,423,09JUL2019:11:15:00,80.1,13.95,76.2,78.1,77.0,78.1,75.9,25,32,22,0.823,38.7,43.9,34.6,12.32,8.9,193,19,15.0,0.00671,0.00852,61.7,63.4,9,833,.,.,16.01,0.00,0.00
15min,AgWx,beryljct,423,09JUL2019:11:30:00,80.7,14.01,77.0,77.4,77.4,78.1,76.6,25,34,20,0.776,38.8,46.4,33.4,7.3,8.8,184,19,12.6,0.00693,0.00876,62.1,63.4,9,866,.,.,16.01,0.00,0.00
15min,AgWx,beryljct,423,09JUL2019:11:45:00,81.3,13.98,76.8,77.2,77.5,78.5,76.5,26,36,18,0.960,39.9,48.7,31.4,5.437,4.8,217,29,9.5,0.00668,0.00792,62.5,63.4,9,894,.,.,16.01,0.00,0.00
15min,AgWx,beryljct,423,09JUL2019:12:00:00,82.0,13.91,78.4,78.4,78.2,79.5,76.9,26,37,18,0.732,39.8,48.4,32.3,12.04,6.4,207,45,18.2,0.00706,0.00856,63.0,63.4,9,922,.,.,16.01,0.00,0.00
15min,AgWx,beryljct,423,09JUL2019:12:15:00,82.6,13.49,79.7,80.0,79.2,80.2,78.2,23,33,18,0.750,38.1,47.8,32.7,4.231,7.6,180,25,16.0,0.00748,0.00926,63.4,63.4,9,947,.,.,16.01,0.00,0.00
15min,AgWx,beryljct,423,09JUL2019:12:30:00,82.9,13.49,80.1,80.2,79.7,80.5,78.8,22,27,19,0.734,37.5,43.2,33.2,13.48,8.5,179,18,16.2,0.00773,0.00964,63.8,63.4,9,968,.,.,16.01,0.00,0.00
15min,AgWx,beryljct,423,09JUL2019:12:45:00,83.2,13.49,81.7,80.6,79.7,80.8,78.1,23,33,19,0.731,38.7,46.9,33.9,7.738,9.6,180,25,23.1,0.00792,0.01000,64.3,63.4,9,983,.,.,16.01,0.00,0.00
15min,AgWx,beryljct,423,09JUL2019:13:00:00,83.5,13.46,80.6,80.0,80.2,80.9,79.6,20,26,17,0.924,35.6,42.6,31.2,14.32,10.0,177,23,17.4,0.00814,0.01034,64.8,63.5,9,998,.,.,16.01,0.00,0.00
15min,AgWx,beryljct,423,09JUL2019:13:15:00,83.9,13.43,80.4,81.1,80.9,81.4,80.1,20,26,17,0.725,36.0,42.0,32.5,10.63,11.6,165,15,16.3,0.00843,0.01090,65.2,63.5,9,1008,.,.,16.01,0.01,0.00
15min,AgWx,beryljct,423,09JUL2019:13:30:00,84.2,13.46,79.7,80.9,80.9,82.2,79.9,19,23,16,0.781,35.3,39.4,30.7,7.826,9.7,184,15,17.9,0.00828,0.01050,65.7,63.6,9,1015,.,.,16.01,0.00,0.00
15min,AgWx,beryljct,423,09JUL2019:13:45:00,84.7,13.47,81.7,81.0,81.0,81.7,80.2,21,28,16,0.711,36.8,44.5,31.3,5.7,7.8,188,23,16.1,0.00806,0.00996,66.1,63.6,9,1017,.,.,16.01,0.00,0.00
15min,AgWx,beryljct,423,09JUL2019:14:00:00,85.1,13.44,80.9,81.3,81.2,82.2,80.1,21,29,17,0.808,37.5,45.5,31.7,9.73,9.3,187,19,15.8,0.00822,0.01034,66.6,63.7,9,1015,.,.,16.01,0.00,0.00
15min,AgWx,beryljct,423,09JUL2019:14:15:00,85.3,13.46,82.7,82.4,81.7,82.4,80.8,19,22,16,0.741,35.8,39.1,30.9,7.958,10.8,161,17,16.3,0.00843,0.01083,67.0,63.8,9,1009,.,.,16.01,0.00,0.00
15min,AgWx,beryljct,423,09JUL2019:14:30:00,85.5,13.44,82.6,82.3,82.2,83.2,81.5,17,21,15,0.714,33.4,38.5,29.5,12.04,9.8,154,19,15.5,0.00831,0.01060,67.4,63.9,9,997,.,.,16.01,0.00,0.00
15min,AgWx,beryljct,423,09JUL2019:14:45:00,85.6,13.43,81.2,82.3,82.3,83.0,81.6,19,24,16,0.675,36.0,41.9,31.4,10.02,11.3,158,19,15.9,0.00837,0.01086,67.8,64.0,9,983,.,.,16.01,0.00,0.00
15min,AgWx,beryljct,423,09JUL2019:15:00:00,85.6,13.38,83.8,82.5,82.4,82.9,81.6,19,24,16,0.784,36.0,41.6,30.6,6.248,9.1,156,18,14.0,0.00800,0.01015,68.3,64.1,9,965,.,.,16.01,0.00,0.00
15min,AgWx,beryljct,423,09JUL2019:15:15:00,85.6,13.48,79.9,82.3,82.4,83.4,81.2,20,26,16,0.909,37.7,42.6,32.4,8.66,9.1,180,26,13.6,0.00785,0.00996,68.7,64.2,9,946,.,.,16.01,0.00,0.00
15min,AgWx,beryljct,423,09JUL2019:15:30:00,86.0,13.36,82.0,81.9,82.8,83.8,81.3,20,27,15,0.811,36.8,44.7,29.8,12.93,7.7,183,38,14.7,0.00754,0.00943,69.1,64.4,9,922,.,.,16.01,0.00,0.00
15min,AgWx,beryljct,423,09JUL2019:15:45:00,86.4,13.36,82.0,83.0,82.8,83.7,80.8,19,30,16,0.625,36.2,46.3,32.0,14.36,9.7,179,36,20.2,0.00765,0.00986,69.5,64.5,9,898,.,.,16.01,0.00,0.00
15min,AgWx,beryljct,423,09JUL2019:16:00:00,86.8,13.36,80.1,82.3,83.0,83.5,82.3,19,25,14,0.907,36.0,43.2,29.6,10.37,8.1,161,48,13.8,0.00727,0.00925,69.9,64.7,9,870,.,.,16.01,0.00,0.00
15min,AgWx,beryljct,423,09JUL2019:16:15:00,87.0,13.32,82.9,83.4,81.8,83.5,80.5,24,34,16,0.682,40.9,49.7,32.0,7.892,7.2,239,38,14.0,0.00678,0.00847,70.3,64.8,9,839,.,.,16.01,0.00,0.00
15min,AgWx,beryljct,423,09JUL2019:16:30:00,87.0,13.35,81.3,81.0,81.2,83.4,80.4,24,28,18,0.848,40.6,44.9,33.8,7.541,8.5,223,17,13.8,0.00658,0.00844,70.7,64.9,9,790,.,.,16.01,0.00,0.00
15min,AgWx,beryljct,423,09JUL2019:16:45:00,87.1,13.39,80.6,80.9,81.7,83.5,80.5,23,29,15,0.918,39.5,46.7,30.8,5.765,7.0,224,25,11.8,0.00605,0.00769,71.1,65.1,9,735,.,.,16.01,0.00,0.00
15min,AgWx,beryljct,423,09JUL2019:17:00:00,87.2,13.37,81.5,82.3,81.8,83.2,80.7,24,30,16,0.935,41.4,46.7,31.4,5.502,6.8,211,18,11.8,0.00594,0.00751,71.4,65.2,9,728,.,.,16.01,0.00,0.00
15min,AgWx,beryljct,423,09JUL2019:17:15:00,87.3,13.34,84.1,83.9,82.3,84.0,81.4,20,27,13,0.588,36.9,44.6,27.8,6.204,7.6,198,18,13.5,0.00584,0.00760,71.7,65.4,9,686,.,.,16.01,0.00,0.00
15min,AgWx,beryljct,423,09JUL2019:17:30:00,87.2,13.35,80.4,80.8,81.1,83.9,79.8,24,32,17,0.893,41.0,47.8,33.9,6.511,7.6,221,14,11.6,0.00523,0.00686,72.0,65.6,9,615,.,.,16.01,0.00,0.00
15min,AgWx,beryljct,423,09JUL2019:17:45:00,86.7,13.33,82.7,81.0,80.9,82.9,79.9,23,30,16,0.585,39.6,46.3,30.9,6.357,7.4,220,21,11.3,0.00509,0.00670,72.2,65.7,9,597,.,.,16.01,0.00,0.00
15min,AgWx,beryljct,423,09JUL2019:18:00:00,86.0,13.38,80.5,81.2,80.6,82.2,79.0,21,28,15,0.660,37.1,43.1,29.5,7.629,8.1,224,24,11.9,0.00489,0.00661,72.4,65.9,9,549,.,.,16.01,0.00,0.00
15min,AgWx,beryljct,423,09JUL2019:18:15:00,85.7,13.34,80.1,79.1,80.3,82.2,78.2,24,31,13,0.888,39.5,47.8,26.5,9.32,7.1,217,17,11.2,0.00436,0.00586,72.6,66.1,9,502,.,.,16.01,0.00,0.00
15min,AgWx,beryljct,423,09JUL2019:18:30:00,85.1,13.4,80.2,79.4,80.4,81.4,79.3,22,28,16,0.826,37.7,43.7,30.6,10.26,8.1,204,14,13.7,0.00420,0.00587,72.7,66.2,9,452,.,.,16.01,0.00,0.00
15min,AgWx,beryljct,423,09JUL2019:18:45:00,84.5,13.4,81.0,79.9,79.8,80.6,78.9,22,26,18,0.680,37.1,40.9,32.6,6.138,7.4,217,13,9.8,0.00374,0.00528,72.8,66.4,9,403,.,.,16.01,0.00,0.00
15min,AgWx,beryljct,423,09JUL2019:19:00:00,84.1,13.31,79.6,80.1,79.9,80.7,78.8,21,31,16,0.703,36.7,45.5,30.7,8.42,7.9,208,12,13.5,0.00350,0.00510,72.8,66.6,10,353,.,.,16.01,0.00,0.00
15min,AgWx,beryljct,423,09JUL2019:19:15:00,83.5,13.2,78.2,78.1,79.3,80.6,78.1,22,28,17,0.795,36.8,43.0,31.5,7.256,8.1,213,15,12.2,0.00317,0.00476,72.8,66.7,10,303,.,.,16.02,0.00,0.00
15min,AgWx,beryljct,423,09JUL2019:19:30:00,82.6,13.19,79.8,79.4,78.4,79.5,77.4,22,27,18,0.626,36.9,40.6,32.6,7.804,7.8,211,9.8,12.2,0.00275,0.00425,72.7,66.9,9,254,.,.,16.01,0.00,0.00
15min,AgWx,beryljct,423,09JUL2019:19:45:00,82.0,13.15,78.6,79.8,78.9,79.9,77.5,20,25,18,0.669,34.9,38.7,32.4,7.563,8.6,201,11,13.8,0.00263,0.00429,72.6,67.0,9,206,.,.,16.02,0.00,0.00
15min,AgWx,beryljct,423,09JUL2019:20:00:00,81.3,13.15,78.9,77.9,78.3,79.6,77.3,21,23,19,0.669,35.3,36.6,33.3,8.72,7.9,202,12,10.5,0.00216,0.00366,72.5,67.1,10,161,.,.,16.02,0.00,0.00
15min,AgWx,beryljct,423,09JUL2019:20:15:00,80.4,13.13,77.1,77.3,77.4,79.1,76.4,22,26,18,0.664,35.3,38.7,32.3,7.168,7.2,199,8.4,10.9,0.00122,0.00167,72.4,67.3,9,119,.,.,16.02,0.00,0.00
15min,AgWx,beryljct,423,09JUL2019:20:30:00,79.1,13.14,75.4,75.5,76.1,77.3,75.2,23,25,21,0.710,35.6,37.0,34.1,7.256,6.6,201,5.1,9.4,0.00102,0.00142,72.2,67.4,10,80,.,.,16.02,0.00,0.00
15min,AgWx,beryljct,423,09JUL2019:20:45:00,77.7,13.1,73.2,73.7,74.7,75.6,73.6,23,24,22,0.679,34.9,35.8,34.1,5.765,6.3,195,5.9,8.6,0.00086,0.00121,72.0,67.5,10,43,.,.,16.02,0.00,0.00
15min,AgWx,beryljct,423,09JUL2019:21:00:00,75.5,13.09,69.7,69.7,71.9,73.7,69.7,27,31,24,0.765,35.6,38.0,34.2,3.814,5.2,192,4.9,6.9,0.00056,0.00082,71.8,67.6,9,9,.,.,16.02,0.00,0.00
15min,AgWx,beryljct,423,09JUL2019:21:15:00,72.9,13.08,67.2,68.5,69.3,71.0,67.2,31,38,25,0.747,37.0,41.4,32.7,4.231,4.3,199,4.1,5.6,0.00035,0.00055,71.6,67.7,9,1,.,.,16.03,0.00,0.00
15min,AgWx,beryljct,423,09JUL2019:21:30:00,70.6,13.07,69.3,70.8,68.7,71.0,66.0,30,39,24,0.643,35.5,40.6,31.8,5.239,4.5,202,4.4,5.7,0.00038,0.00059,71.3,67.8,9,0,.,.,16.03,0.00,0.00
15min,AgWx,beryljct,423,09JUL2019:21:45:00,69.4,13.06,69.6,69.4,69.9,71.0,68.5,26,30,24,0.656,33.8,35.7,32.0,5.678,5.5,210,1.8,6.5,0.00055,0.00080,71.1,67.8,10,0,.,.,16.03,0.00,0.00
15min,AgWx,beryljct,423,09JUL2019:22:00:00,68.4,13.05,71.7,69.8,69.7,70.4,68.5,26,29,24,0.632,33.4,35.1,32.1,5.612,5.4,202,2.8,6.4,0.00054,0.00079,70.8,67.9,9,0,.,.,16.03,0.00,0.00
15min,AgWx,beryljct,423,09JUL2019:22:15:00,67.6,13.04,66.5,66.8,68.6,70.3,66.8,29,33,25,0.730,34.8,37.3,32.4,3.727,4.8,194,10,6.0,0.00043,0.00065,70.5,68.0,10,0,.,.,16.03,0.00,0.00
15min,AgWx,beryljct,423,09JUL2019:22:30:00,66.8,13.03,64.0,66.1,67.3,67.8,66.1,31,34,28,0.700,35.3,37.4,33.2,3.157,5.0,204,23,6.9,0.00043,0.00064,70.2,68.0,9,0,.,.,16.03,0.00,0.00
15min,AgWx,beryljct,423,09JUL2019:22:45:00,66.0,13.02,64.4,63.3,64.8,66.0,62.8,33,37,29,0.702,35.1,38.1,32.5,6.686,5.2,172,13,7.5,0.00041,0.00060,69.8,68.0,9,0,.,.,16.03,0.00,0.00
15min,AgWx,beryljct,423,09JUL2019:23:00:00,65.1,13.02,60.8,61.7,63.5,66.2,61.5,35,41,30,0.719,35.2,38.3,33.5,8.07,6.9,160,5.6,8.8,0.00053,0.00073,69.5,68.0,10,0,.,.,16.04,0.00,0.00
15min,AgWx,beryljct,423,09JUL2019:23:15:00,64.4,13,67.7,66.6,64.1,66.6,61.5,31,39,28,0.635,33.1,36.1,31.7,6.708,7.6,172,6.8,9.1,0.00063,0.00084,69.1,68.0,10,0,.,.,16.03,0.00,0.00
15min,AgWx,beryljct,423,09JUL2019:23:30:00,64.8,12.99,62.9,64.4,68.4,69.7,64.4,27,34,24,0.703,32.6,36.6,31.7,7.432,7.2,170,9.8,8.8,0.00072,0.00098,68.8,68.0,9,0,.,.,16.03,0.00,0.00
15min,AgWx,beryljct,423,09JUL2019:23:45:00,64.4,12.98,62.6,62.2,62.0,64.4,61.3,35,39,31,0.623,33.9,36.9,31.5,5.152,5.9,171,9.1,7.2,0.00043,0.00061,68.5,68.0,10,0,.,.,16.04,0.00,0.00
15min,AgWx,beryljct,423,10JUL2019:00:00:00,63.3,12.97,63.0,62.8,62.2,62.8,61.6,34,37,31,0.656,33.5,35.4,31.5,5.064,5.5,187,13,6.9,0.00040,0.00058,68.1,68.0,9,0,.,.,16.04,0.00,0.00
15min,AgWx,beryljct,423,10JUL2019:00:15:00,62.6,12.97,62.3,61.6,63.0,64.1,61.6,32,36,30,0.655,32.7,34.1,31.6,5.196,5.5,180,7.4,6.4,0.00043,0.00061,67.8,68.0,10,0,.,.,16.04,0.00,0.00
15min,AgWx,beryljct,423,10JUL2019:00:30:00,61.6,12.95,54.5,54.0,58.2,63.3,53.9,44,58,32,0.804,35.9,39.4,32.3,2.324,4.7,156,28,6.9,0.00024,0.00036,67.5,67.9,10,0,.,.,16.04,0.00,0.00
15min,AgWx,bigpiney,439,09JUL2019:00:00:00,50.3,12.74,44.5,44.9,47.5,49.3,44.9,74,87,64,0.881,39.4,41.3,37.5,0.636,1.8,331,69,4.2,0.00009,0.00014,52.8,50.2,54,0,0,0.0,3.96,0.00,0.00
15min,AgWx,bigpiney,439,09JUL2019:00:15:00,49.8,12.72,44.4,44.0,44.5,44.8,43.9,88,90,87,0.884,41.3,41.5,40.8,0,1.6,111,62,2.8,0.00003,0.00005,52.7,50.2,54,0,0,0.0,3.96,0.00,0.00
15min,AgWx,bigpiney,439,09JUL2019:00:30:00,49.2,12.72,43.9,43.6,44.0,44.4,43.6,91,92,91,0.881,41.6,42.0,41.3,1.6,1.2,263,8.6,2.9,0.00002,0.00003,52.7,50.3,54,0,0,0.0,3.96,0.00,0.00
15min,AgWx,bigpiney,439,09JUL2019:00:45:00,48.6,12.71,44.9,44.0,43.5,44.0,43.2,91,92,90,0.876,41.0,41.3,40.8,2.236,1.6,304,29,2.7,0.00003,0.00004,52.6,50.2,54,0,1,0.0,3.96,0.00,0.00
15min,AgWx,bigpiney,439,09JUL2019:01:00:00,47.9,12.69,43.0,42.9,43.6,44.2,42.9,87,89,86,0.828,40.1,41.1,39.7,1.841,2.2,340,32,3.2,0.00005,0.00007,52.6,50.3,54,0,0,0.0,3.96,0.00,0.00
15min,AgWx,bigpiney,439,09JUL2019:01:15:00,47.1,12.68,41.0,40.4,42.0,43.0,40.4,89,91,87,0.773,38.9,40.0,37.6,2.148,2.0,254,35,3.1,0.00004,0.00006,52.6,50.3,54,0,0,0.0,3.96,0.00,0.00
15min,AgWx,bigpiney,439,09JUL2019:01:30:00,46.2,12.67,40.8,40.0,40.2,41.3,39.5,91,93,89,0.756,37.8,39.4,37.0,2.74,1.7,192,16,2.9,0.00003,0.00004,52.5,50.3,54,0,0,0.0,3.96,0.00,0.00
15min,AgWx,bigpiney,439,09JUL2019:01:45:00,45.2,12.66,40.3,39.7,39.4,40.3,38.7,92,93,90,0.771,37.1,38.0,36.2,2.477,2.7,212,12,3.4,0.00003,0.00004,52.4,50.3,54,0,0,0.0,3.96,0.00,0.00
15min,AgWx,bigpiney,439,09JUL2019:02:00:00,44.4,12.66,38.8,38.6,39.0,39.9,38.6,93,94,92,0.743,37.1,38.1,36.6,2.959,3.0,215,18,4.5,0.00003,0.00004,52.4,50.3,54,0,0,0.0,3.96,0.00,0.00
15min,AgWx,bigpiney,439,09JUL2019:02:15:00,43.8,12.65,39.9,39.6,39.1,39.6,38.5,94,94,94,0.775,37.5,38.0,36.8,2.543,2.6,254,8.2,3.6,0.00002,0.00003,52.3,50.3,54,0,1,0.0,3.96,0.00,0.00
15min,AgWx,bigpiney,439,09JUL2019:02:30:00,43.4,12.62,40.4,39.7,39.7,39.9,39.5,94,94,93,0.770,38.0,38.2,37.8,2.74,2.6,248,9.4,3.6,0.00002,0.00003,52.3,50.3,54,0,1,0.0,3.96,0.00,0.00
15min,AgWx,bigpiney,439,09JUL2019:02:45:00,43.1,12.62,39.5,39.2,39.5,39.9,39.1,92,93,92,0.747,37.4,38.1,36.9,1.206,1.9,255,23,3.4,0.00002,0.00003,52.2,50.3,54,0,1,0.0,3.96,0.00,0.00
15min,AgWx,bigpiney,439,09JUL2019:03:00:00,42.8,12.61,37.2,37.4,38.6,39.2,37.4,92,92,92,0.699,36.4,37.2,35.4,2.653,0.8,328,76,2.7,0.00001,0.00002,52.1,50.3,54,0,1,0.0,3.96,0.00,0.00
15min,AgWx,bigpiney,439,09JUL2019:03:15:00,42.3,12.6,35.7,35.4,36.2,37.4,35.4,92,93,92,0.646,34.2,35.3,33.3,1.907,2.3,341,19,3.5,0.00002,0.00004,52.1,50.3,54,0,1,0.0,3.96,0.00,0.00
15min,AgWx,bigpiney,439,09JUL2019:03:30:00,41.6,12.58,35.6,35.5,35.6,35.7,35.4,92,93,92,0.646,33.6,33.8,33.4,2.718,2.3,289,7.8,4.2,0.00002,0.00003,52.0,50.3,54,0,1,0.0,3.96,0.00,0.00
15min,AgWx,bigpiney,439,09JUL2019:03:45:00,41.0,12.56,37.7,37.1,35.9,37.1,35.4,92,92,92,0.684,33.8,34.8,33.3,2.389,2.6,296,12,3.8,0.00003,0.00004,51.9,50.3,54,0,1,0.0,3.96,0.00,0.00
15min,AgWx,bigpiney,439,09JUL2019:04:00:00,40.6,12.56,35.8,35.5,36.8,37.5,35.5,90,92,89,0.635,34.2,34.9,32.9,1.228,2.0,339,33,3.2,0.00003,0.00004,51.8,50.2,54,0,1,0.0,3.96,0.00,0.00
15min,AgWx,bigpiney,439,09JUL2019:04:15:00,40.2,12.54,36.2,35.7,35.3,35.7,34.9,91,92,91,0.645,33.0,33.4,32.6,1.885,0.8,300,16,2.7,0.00001,0.00002,51.7,50.3,54,0,1,0.0,3.96,0.00,0.00
15min,AgWx,bigpiney,439,09JUL2019:04:30:00,39.7,12.53,37.2,35.9,35.5,35.9,35.1,91,93,91,0.663,33.2,34.1,32.7,1.732,1.8,256,13,2.5,0.00002,0.00003,51.7,50.2,54,0,1,0.0,3.96,0.00,0.00
15min,AgWx,bigpiney,439,09JUL2019:04:45:00,39.4,12.52,33.2,33.4,35.0,36.4,33.4,92,93,90,0.592,32.8,34.3,31.2,3.157,2.3,228,26,3.8,0.00003,0.00004,51.6,50.2,54,0,1,0.0,3.96,0.00,0.00
15min,AgWx,bigpiney,439,09JUL2019:05:00:00,38.9,12.52,33.8,33.6,33.2,33.7,32.9,93,93,92,0.606,31.3,32.0,30.9,3.354,3.6,214,11,4.6,0.00003,0.00004,51.5,50.2,54,0,1,0.0,3.96,0.00,0.00
15min,AgWx,bigpiney,439,09JUL2019:05:15:00,38.6,12.51,34.3,34.0,33.9,34.1,33.6,93,93,93,0.613,32.1,32.4,31.8,3.858,4.1,225,11,5.9,0.00003,0.00004,51.4,50.2,54,0,1,0.0,3.96,0.00,0.00
15min,AgWx,bigpiney,439,09JUL2019:05:30:00,38.3,12.51,35.8,35.2,34.4,35.2,33.9,93,93,92,0.643,32.5,33.3,31.9,2.806,3.3,232,13,4.5,0.00003,0.00004,51.3,50.2,54,0,1,0.0,3.96,0.00,0.00
15min,AgWx,bigpiney,439,09JUL2019:05:45:00,38.2,12.5,36.8,36.0,35.4,36.0,35.0,92,93,91,0.657,33.3,33.9,32.7,0,1.7,317,21,4.3,0.00002,0.00003,51.2,50.2,54,1,1,0.0,3.96,0.00,0.00
15min,AgWx,bigpiney,439,09JUL2019:06:00:00,38.0,12.5,35.3,35.0,35.2,36.4,34.3,91,92,89,0.628,32.7,34.1,31.8,0.636,1.8,99,41,3.3,0.00004,0.00005,51.1,50.1,54,6,1,0.0,3.96,0.00,0.00
15min,AgWx,bigpiney,439,09JUL2019:06:15:00,37.9,12.52,34.4,34.3,34.7,35.1,34.3,91,92,91,0.611,32.3,32.7,32.0,2.587,2.3,7.6,32,3.8,-0.00029,-0.00028,51.0,50.1,54,17,1,0.0,3.96,0.00,0.00
15min,AgWx,bigpiney,439,09JUL2019:06:30:00,37.9,12.52,35.4,34.8,34.5,34.8,34.2,92,92,91,0.626,32.3,32.6,32.0,0.438,2.9,318,27,5.9,-0.00006,-0.00003,50.9,50.1,54,26,1,0.0,3.96,0.00,0.00
15min,AgWx,bigpiney,439,09JUL2019:06:45:00,37.9,12.54,36.0,35.7,35.3,36.0,34.8,92,92,90,0.641,33.1,33.7,32.6,1.337,1.2,216,16,3.0,0.00008,0.00010,50.8,50.1,54,29,1,0.0,3.96,0.00,0.00
15min,AgWx,bigpiney,439,09JUL2019:07:00:00,38.0,12.6,36.3,35.8,35.6,35.8,35.4,91,92,91,0.658,33.4,33.9,33.0,2.916,3.0,207,12,5.2,0.00016,0.00020,50.7,50.1,54,61,1,0.0,3.96,0.00,0.00
15min,AgWx,bigpiney,439,09JUL2019:07:15:00,38.5,12.59,38.1,37.6,36.9,37.6,35.8,93,93,92,0.705,35.0,35.6,33.8,4.077,4.1,207,12,5.8,0.00029,0.00034,50.6,50.0,54,118,1,0.0,3.96,0.00,0.00